KAC176 OKKK-HRYR

Flight info

Callsign KAC176
Flight time N/A
Altitude 36000
Route DEKOB P517 KSB DCT NAGSA DCT DATVA DCT ABKAR DCT GERIG DCT BRO DCT TAPOS B535 JUB B527 OVELA UB527 EGREK EGREK1B
Aircraft A321/M-SDE3FGHIRWY/LB1

Departure

Time N/A
Airport Kuwait International Airport (OKKK)

Arrival

Time 2026-05-03 20:37
Airport Kigali International Airport (HRYR)
Time Latitude Longitude Altitude Speed Heading
2026-05-03 20:15 -0.24307 30.52493 36130 ft 459 kts 188°
2026-05-03 20:15 -0.30550 30.51433 36137 ft 458 kts 188°
2026-05-03 20:16 -0.36842 30.50365 35907 ft 458 kts 188°
2026-05-03 20:16 -0.39987 30.49831 35681 ft 459 kts 188°
2026-05-03 20:16 -0.43137 30.49297 35445 ft 459 kts 188°
2026-05-03 20:16 -0.46290 30.48764 35213 ft 460 kts 188°
2026-05-03 20:17 -0.49447 30.48230 34985 ft 460 kts 188°
2026-05-03 20:17 -0.52609 30.47697 34755 ft 461 kts 188°
2026-05-03 20:17 -0.55776 30.47164 34532 ft 462 kts 188°
2026-05-03 20:17 -0.58948 30.46629 34314 ft 463 kts 188°
2026-05-03 20:18 -0.62125 30.46092 34086 ft 463 kts 188°
2026-05-03 20:18 -0.65309 30.45554 33825 ft 464 kts 188°
2026-05-03 20:18 -0.68496 30.45013 33577 ft 465 kts 188°
2026-05-03 20:18 -0.71686 30.44469 33324 ft 465 kts 188°
2026-05-03 20:19 -0.74880 30.43925 33073 ft 466 kts 188°
2026-05-03 20:19 -0.78078 30.43384 32322 ft 469 kts 188°
2026-05-03 20:19 -0.81328 30.42836 31439 ft 474 kts 188°
2026-05-03 20:19 -0.84563 30.42287 30872 ft 470 kts 188°
2026-05-03 20:20 -0.87790 30.41738 30161 ft 470 kts 189°
2026-05-03 20:20 -0.91008 30.41192 29433 ft 467 kts 188°
2026-05-03 20:20 -0.94201 30.40650 28782 ft 463 kts 188°
2026-05-03 20:20 -0.97368 30.40109 28130 ft 460 kts 189°
2026-05-03 20:21 -1.00510 30.39572 27499 ft 456 kts 188°
2026-05-03 20:21 -1.03623 30.39041 26858 ft 453 kts 188°
2026-05-03 20:21 -1.06687 30.38356 26227 ft 451 kts 197°
2026-05-03 20:21 -1.09586 30.37174 25594 ft 448 kts 206°
2026-05-03 20:22 -1.12251 30.35570 24970 ft 446 kts 212°
2026-05-03 20:22 -1.14857 30.33903 24356 ft 443 kts 212°
2026-05-03 20:22 -1.17447 30.32249 23752 ft 440 kts 212°
2026-05-03 20:22 -1.20019 30.30610 23114 ft 436 kts 211°
2026-05-03 20:23 -1.22554 30.28996 22591 ft 428 kts 211°
2026-05-03 20:23 -1.25044 30.27409 22086 ft 421 kts 211°
2026-05-03 20:23 -1.27491 30.25848 21603 ft 414 kts 211°
2026-05-03 20:23 -1.29897 30.24316 21129 ft 407 kts 211°
2026-05-03 20:24 -1.32268 30.22810 20649 ft 401 kts 211°
2026-05-03 20:24 -1.34606 30.21323 20169 ft 396 kts 211°
2026-05-03 20:24 -1.36915 30.19850 19679 ft 392 kts 211°
2026-05-03 20:24 -1.39200 30.18392 19192 ft 388 kts 211°
2026-05-03 20:25 -1.41467 30.16949 18705 ft 385 kts 211°
2026-05-03 20:25 -1.43721 30.15515 18158 ft 383 kts 211°
2026-05-03 20:25 -1.45962 30.14091 17643 ft 379 kts 211°
2026-05-03 20:25 -1.48147 30.12702 17144 ft 376 kts 211°
2026-05-03 20:26 -1.50338 30.11304 16637 ft 373 kts 211°
2026-05-03 20:26 -1.52522 30.09910 16129 ft 370 kts 211°
2026-05-03 20:26 -1.54687 30.08528 15627 ft 368 kts 211°
2026-05-03 20:26 -1.56835 30.07157 15130 ft 366 kts 211°
2026-05-03 20:27 -1.58982 30.05789 14633 ft 364 kts 211°
2026-05-03 20:27 -1.61118 30.04433 14134 ft 363 kts 210°
2026-05-03 20:27 -1.63242 30.03083 13586 ft 362 kts 210°
2026-05-03 20:27 -1.65356 30.01737 13075 ft 359 kts 210°
2026-05-03 20:28 -1.67450 30.00402 12558 ft 355 kts 210°
2026-05-03 20:28 -1.69526 29.99078 12087 ft 352 kts 210°
2026-05-03 20:28 -1.71545 29.97787 11953 ft 337 kts 210°
2026-05-03 20:28 -1.73483 29.96548 11835 ft 324 kts 210°
2026-05-03 20:29 -1.75346 29.95359 11711 ft 311 kts 210°
2026-05-03 20:29 -1.77134 29.94217 11590 ft 298 kts 210°
2026-05-03 20:29 -1.78851 29.93121 11476 ft 287 kts 209°
2026-05-03 20:29 -1.80516 29.92060 11265 ft 281 kts 209°
2026-05-03 20:30 -1.82170 29.91072 11147 ft 274 kts 201°
2026-05-03 20:30 -1.83967 29.90482 10933 ft 273 kts 187°
2026-05-03 20:30 -1.85842 29.90169 10578 ft 272 kts 186°
2026-05-03 20:30 -1.87708 29.89856 10191 ft 270 kts 186°
2026-05-03 20:31 -1.89526 29.89591 9736 ft 256 kts 178°
2026-05-03 20:31 -1.91191 29.89932 9294 ft 240 kts 152°
2026-05-03 20:31 -1.92435 29.90943 8882 ft 224 kts 127°
2026-05-03 20:31 -1.93054 29.92264 8614 ft 199 kts 104°
2026-05-03 20:32 -1.93277 29.93550 8421 ft 177 kts 101°
2026-05-03 20:32 -1.93476 29.94707 8199 ft 162 kts 101°
2026-05-03 20:32 -1.93663 29.95789 7978 ft 155 kts 101°
2026-05-03 20:32 -1.93850 29.96844 7787 ft 154 kts 102°
2026-05-03 20:33 -1.94029 29.97882 7620 ft 153 kts 102°
2026-05-03 20:33 -1.94222 29.98928 7447 ft 153 kts 102°
2026-05-03 20:33 -1.94397 29.99975 7290 ft 153 kts 101°
2026-05-03 20:33 -1.94572 30.01023 7118 ft 153 kts 100°
2026-05-03 20:34 -1.94750 30.02072 6970 ft 153 kts 100°
2026-05-03 20:34 -1.94938 30.03122 6736 ft 154 kts 99°
2026-05-03 20:34 -1.95104 30.04178 6518 ft 155 kts 99°
2026-05-03 20:34 -1.95304 30.05235 6300 ft 155 kts 100°
2026-05-03 20:35 -1.95501 30.06296 6066 ft 156 kts 99°
2026-05-03 20:35 -1.95705 30.07360 5852 ft 157 kts 101°
2026-05-03 20:35 -1.95943 30.08420 5668 ft 156 kts 101°
2026-05-03 20:35 -1.96135 30.09481 5503 ft 154 kts 95°
2026-05-03 20:36 -1.96283 30.10541 5283 ft 153 kts 98°
2026-05-03 20:36 -1.96457 30.11587 5091 ft 151 kts 98°
2026-05-03 20:36 -1.96629 30.12623 4917 ft 151 kts 98°
2026-05-03 20:36 -1.96797 30.13574 4887 ft 110 kts 101°
2026-05-03 20:37 -1.96884 30.14025 4885 ft 22 kts 101°
2026-05-03 20:37 -1.96888 30.14046 4885 ft 0 kts 102°
2026-05-03 20:37 -1.96901 30.14071 4883 ft 6 kts 92°
2026-05-03 20:37 -1.96883 30.14061 4885 ft 7 kts 274°
2026-05-03 20:38 -1.96873 30.13986 4886 ft 17 kts 280°
2026-05-03 20:38 -1.96847 30.13848 4886 ft 20 kts 280°